{"data":{"norad_id":59368,"intl_designator":"2024-060W","name":"STARLINK-31419","alt_names":[],"object_type":"PAYLOAD","status":"ACTIVE","operator":null,"country":"US","launch_date":"2024-03-31","launch_site_code":"AFETR","launch_vehicle":null,"mission":null,"orbit_class":"UNKNOWN","rcs_meters":null,"size_class":null,"mass_kg":null,"dimensions":null,"purposes":["comms"],"wikipedia_slug":null,"has_3d_model":false,"image_url":null,"decayed_at":null,"tle_current":{"epoch":"2026-09-21T07:46:06.683808Z","epoch_age_seconds":91117,"freshness":"FRESH","line1":"1 59368U 24060W   26264.32368847  .00000006  00000+0  97461-5 0  9991","line2":"2 59368  43.0024 234.9216 0001277 267.5049  92.5657 15.27580274139988","mean_motion":15.27580274,"eccentricity":0.0001277,"inclination_deg":43.0024,"raan_deg":234.9216,"arg_perigee_deg":267.5049,"mean_anomaly_deg":92.5657,"bstar":9.7461e-6,"rev_number":13998,"period_min":94.266731805153,"perigee_km":482.17210222551,"apogee_km":483.9244489449,"semimajor_km":6861.1852755852,"source":"CELESTRAK","updated_at":"2026-09-22T09:00:48.907160Z"}}}